TUBSAT

Satellite information

Favourite Embed

Satellite Type and Status

PAYLOADIN ORBIT

Key statistics

Satellite TUBSAT at a glance.

Uptime

9479

Days in orbit

Revolutions

≈ 14.5

Per day

Orbit

SSO

Sun Synchronous Orbit

Inclination

98.6

Latest

Satellite identification and parameters

Extended collection of information and parameters for TUBSAT.

Object identification

Identified? True

Debris? False

Object name: TUBSAT

International designator: 1999-029B

Object number (NORAD): 25757

Object ID (CCSDS): 25757

Country: GERMANY (GER)

Current information (Y/N): Y

RCS size: MEDIUM

Orbital parameters

Period: 99.156 minutes

Inclination: 98.6335 deg

SMA: 7096.414 km

Apoapsis: 728.894 km

Periapsis: 707.664 km

RAAN: 105.9703 deg

Eccentricy: 0.0014958

Argument of periapsis: 139.2067 deg

Mean anomaly: 221.025 deg

Mean motion: 14.52259875 rev/day

Mean motion (dot): 0.00000185 rev/day2

B* drag term: 0.000057286 1/REarth

Two-line elements (TLE)

Creation date: May 8, 2025, 3:01 a.m.

Reference frame: TEME

Reference center: EARTH

Epoch: May 7, 2025, 10:04 p.m. UTC

TLE line 0: 0 TUBSAT

TLE line 1: 1 25757U 99029B 25127.91985871 .00000185 00000-0 57286-4 0 9996

TLE line 2: 2 25757 98.6335 105.9703 0014958 139.2067 221.0250 14.52259875374422

Live tracking on map

Real-time ground track for satellite TUBSAT.

In-orbit conjunctions

There are no conjunctions computed for TUBSAT, at the moment. Check back to stay up to date, as we update our databases every day.

Go to all conjunctions

Associated space launch

IRS-P4 (Indian Remote Sensing Satellite) or Oceansat is the first indian satellite primarily built for Ocean applications. Kitsat (Korean Institute of Technology Satellite 3), renamed on orbit as Uribyol 3, was the first Korean satellite in true sense and was launched by an Indian PSLV-G (2) rocket in May 1999.

TUBSAT was lifted into orbit during the mission ‘PSLV | IRS-P4 & Uribyol-3’, on board a PSLV space rocket.

The launch took place on May 26, 1999, 6:22 a.m. from Satish Dhawan Space Centre First Launch Pad.

For more information about the launch, click the button.

Launch to space PSLV | IRS-P4 & Uribyol-3
PSLV | IRS-P4 & Uribyol-3

Agency: N/A

Status: Launch Successful

Launch date: May 26, 1999, 6:22 a.m. UTC

Rocket: PSLV

Launch pad: Satish Dhawan Space Centre First Launch Pad

Location: Satish Dhawan Space Centre, India

...

Latest news about this satellite

There are no fresh news available about this satellite. Check back as we update our databases every day.


Newsletter sign-up

Weekly statistics, charts and insights to help you stay on top of the space industry.